Home   Weather   Helsinki   Past weeks
Flag for Finland

Past Weather in Helsinki, Finland — Yesterday and Last 2 Weeks

Now
48 °F

Passing clouds.


Feels Like: 44 °F
Forecast: 35 / 29 °F
Wind: 10 mph from Northwest

Location: Helsinki-Vantaa

Current Time: Mar 28, 2020 at 5:46:05 pm

Latest Report: Mar 28, 2020 at 4:50 pm


Visibility: N/A

Pressure: 29.98 "Hg

Humidity: 40%

Dew Point: 25 °F

Location of HelsinkiLocation

Past Weather in Helsinki — Graph

°F

Helsinki Temperature Yesterday

Maximum temperature yesterday: 48 °F (at 1:50 pm)
Minimum temperature yesterday: 30 °F (at 1:50 am)
Average temperature yesterday: 39 °F

High & Low Weather Summary for the Past Weeks

 TemperatureHumidityPressure
High52 °F (Mar 26, 1:20 pm)100% (Mar 16, 9:20 am)30.74 "Hg (Mar 16, 9:20 am)
Low14 °F (Mar 22, 6:20 am)25% (Mar 22, 1:50 pm)29.33 "Hg (Mar 13, 4:20 pm)
Average35 °F69%30.13 "Hg
* Reported Mar 13 4:20 pm — Mar 28 4:50 pm, Helsinki. Weather by CustomWeather, © 2020

Note: Actual official high and low records may vary slightly from our data, if they occured in-between our weather recording intervals... More about our weather records

Helsinki Weather History for the Previous 24 Hours

Scroll right to see more
 ConditionsComfort  
Time TempWeatherWind HumidityBarometerVisibility
4:50 pm
Sat, Mar 28
48 °FPassing clouds.10 mph40%29.98 "HgN/A
4:20 pm48 °FScattered showers. Scattered clouds.3 mph50%29.98 "HgN/A
3:50 pm46 °FScattered showers. Scattered clouds.3 mph57%29.98 "HgN/A
3:20 pm46 °FScattered showers. Scattered clouds.9 mph57%29.98 "HgN/A
2:50 pm48 °FSprinkles. Scattered clouds.12 mph46%29.98 "HgN/A
2:20 pm50 °FPassing clouds.7 mph43%29.98 "HgN/A
1:50 pm50 °FPassing clouds.10 mph47%30.01 "HgN/A
1:20 pm50 °FPassing clouds.9 mph43%30.01 "HgN/A
12:50 pm48 °FPassing clouds.10 mph50%30.01 "HgN/A
12:20 pm50 °FPassing clouds.9 mph50%30.01 "HgN/A
11:50 am48 °FPassing clouds.9 mph58%30.01 "HgN/A
11:20 am48 °FPassing clouds.9 mph54%30.01 "HgN/A
10:50 am45 °FSunny.8 mph57%30.01 "Hg10 mi
10:20 am45 °FSunny.9 mph57%30.01 "Hg10 mi
9:50 am43 °FPassing clouds.7 mph57%30.01 "HgN/A
9:20 am41 °FPassing clouds.7 mph61%30.01 "HgN/A
8:50 am39 °FSunny.6 mph65%30.04 "Hg10 mi
8:20 am39 °FSunny.7 mph65%30.04 "Hg10 mi
7:50 am37 °FSunny.7 mph70%30.04 "Hg10 mi
7:20 am36 °FPassing clouds.6 mph75%30.04 "HgN/A
6:50 am34 °FSunny.6 mph75%30.04 "Hg10 mi
6:20 am36 °FPassing clouds.3 mph65%30.07 "HgN/A
5:50 am36 °FClear.5 mph65%30.07 "Hg10 mi
5:20 am37 °FClear.6 mph60%30.07 "Hg10 mi
4:50 am37 °FClear.7 mph60%30.09 "Hg10 mi
4:20 am36 °FClear.7 mph70%30.09 "Hg10 mi
3:50 am37 °FClear.6 mph65%30.09 "Hg10 mi
3:20 am36 °FClear.7 mph75%30.12 "Hg10 mi
2:50 am36 °FClear.5 mph75%30.12 "Hg10 mi
2:20 am36 °FClear.6 mph70%30.15 "Hg10 mi
1:50 am36 °FClear.6 mph70%30.15 "Hg10 mi
1:20 am37 °FClear.6 mph65%30.15 "Hg10 mi
12:50 am36 °FClear.6 mph65%30.18 "Hg10 mi
12:20 am37 °FClear.6 mph65%30.18 "Hg10 mi
11:50 pm
Fri, Mar 27
37 °FClear.8 mph65%30.21 "Hg10 mi
11:20 pm39 °FPassing clouds.8 mph61%30.21 "HgN/A
10:50 pm39 °FClear.6 mph56%30.24 "Hg10 mi
10:20 pm37 °FClear.5 mph60%30.24 "Hg10 mi
9:50 pm39 °FClear.6 mph56%30.24 "Hg10 mi
9:20 pm41 °FClear.7 mph49%30.24 "Hg10 mi
8:50 pm39 °FClear.5 mph48%30.27 "Hg10 mi
8:20 pm39 °FClear.7 mph48%30.27 "Hg10 mi
7:50 pm39 °FClear.7 mph48%30.27 "Hg10 mi
7:20 pm41 °FClear.8 mph42%30.30 "Hg10 mi
6:50 pm43 °FSunny.9 mph39%30.30 "Hg10 mi
6:20 pm43 °FSunny.10 mph42%30.30 "Hg10 mi
5:50 pm45 °FSunny.9 mph42%30.30 "Hg10 mi
5:20 pm45 °FSunny.9 mph46%30.33 "Hg10 mi
Weather by CustomWeather, © 2020

See weather overview

Advertising